Date String (YYYY-MM-DD hh:mm:ss) UTC,Instrument flags,absolute air pressure of the measurement (hPa),sample flow rate (lpm),inlet stack bypass flow (lpm),air temperature of the measurement (°C),ambient temperature measured by the external sensor (°C),aerosol sample conditioner tube jacket temperature (°C),OPC LED temperature (°C),internal box temperature (°C),relative humidity of the measurement (%),span deviation,mass concentration of particles derived from Lorenz-Mie calculation of OPC scattering (μg/m³),mass concentration of particles derived from Lorenz-Mie calculation of OPC scattering (μg/m³),mass concentration of particles derived from Lorenz-Mie calculation of OPC scattering (μg/m³)
DateTimeUTC,F1_M11,P_M11,Q1_M11,Q2_M11,T1_M11,T2_M11,T3_M11,T4_M11,T5_M11,U1_M11,ZSPAN_M11,X0_M11,X2_M11,X1_M11
2023-07-05 00:00:00,SystemResetWarning,0832.6,5.02,000.00,030.1,027.4,000.0,037.9,031.0,34.0,0000.0,0011.38,0004.69,0003.84
2023-07-05 00:01:00,SystemResetWarning,0832.5,5.00,000.00,030.2,027.6,000.0,038.0,031.1,33.5,0000.0,0011.01,0004.72,0003.84
2023-07-05 00:02:00,SystemResetWarning,0832.5,5.00,000.00,030.2,027.8,000.0,038.1,031.2,33.7,0000.0,0010.95,0004.73,0003.85
2023-07-05 00:03:00,SystemResetWarning,0832.5,4.99,000.00,030.3,027.8,000.0,038.1,031.2,34.2,0000.0,0010.64,0004.67,0003.84
2023-07-05 00:04:00,SystemResetWarning,0832.5,4.99,000.00,030.3,026.3,000.0,038.1,031.0,33.9,0000.0,0011.16,0004.68,0003.84
2023-07-05 00:05:00,SystemResetWarning,0832.5,5.01,000.00,030.3,025.4,000.0,038.0,030.8,34.2,0000.0,0011.27,0004.70,0003.84
2023-07-05 00:06:00,SystemResetWarning,0832.5,5.01,000.00,030.2,025.5,000.0,038.0,030.7,33.9,0000.0,0010.87,0004.69,0003.84
2023-07-05 00:07:00,SystemResetWarning,0832.6,5.00,000.00,030.1,025.9,000.0,038.1,030.6,34.3,0000.0,0010.87,0004.68,0003.83
2023-07-05 00:08:00,SystemResetWarning,0832.5,4.99,000.00,030.0,026.3,000.0,038.1,030.7,34.1,0000.0,0010.40,0004.68,0003.82
2023-07-05 00:09:00,SystemResetWarning,0832.5,5.00,000.00,030.0,026.7,000.0,038.2,030.8,34.3,0000.0,0010.39,0004.66,0003.82
2023-07-05 00:10:00,SystemResetWarning,0832.5,5.01,000.00,030.0,027.0,000.0,038.2,030.9,34.2,0000.0,0010.38,0004.61,0003.81
2023-07-05 00:11:00,SystemResetWarning,0832.5,4.99,000.00,030.0,027.4,000.0,038.2,031.0,34.0,0000.0,0010.41,0004.59,0003.81
2023-07-05 00:12:00,SystemResetWarning,0832.5,4.99,000.00,030.0,027.6,000.0,038.3,031.0,34.0,0000.0,0010.63,0004.59,0003.81
2023-07-05 00:13:00,SystemResetWarning,0832.5,5.01,000.00,030.1,027.8,000.0,038.3,031.1,34.2,0000.0,0010.67,0004.55,0003.81
2023-07-05 00:14:00,SystemResetWarning,0832.5,5.01,000.00,030.1,028.0,000.0,038.3,031.2,34.3,0000.0,0010.88,0004.57,0003.82
2023-07-05 00:15:00,SystemResetWarning,0832.4,4.99,000.00,030.1,026.7,000.0,038.2,031.0,34.3,0000.0,0010.50,0004.54,0003.82
2023-07-05 00:16:00,SystemResetWarning,0832.3,5.00,000.00,030.0,025.5,000.0,038.1,030.8,34.0,0000.0,0010.42,0004.52,0003.83
2023-07-05 00:17:00,SystemResetWarning,0832.3,5.01,000.00,029.9,025.4,000.0,038.1,030.6,34.1,0000.0,0010.69,0004.60,0003.85
2023-07-05 00:18:00,SystemResetWarning,0832.3,4.99,000.00,029.8,025.7,000.0,038.1,030.5,34.5,0000.0,0011.38,0004.68,0003.87
2023-07-05 00:19:00,SystemResetWarning,0832.4,4.99,000.00,029.7,026.1,000.0,038.1,030.6,34.7,0000.0,0011.41,0004.69,0003.89
2023-07-05 00:20:00,SystemResetWarning,0832.6,5.01,000.00,029.7,026.5,000.0,038.1,030.7,34.7,0000.0,0011.71,0004.69,0003.90
2023-07-05 00:21:00,SystemResetWarning,0832.5,5.00,000.00,029.7,026.9,000.0,038.1,030.8,34.6,0000.0,0011.70,0004.68,0003.90
2023-07-05 00:22:00,SystemResetWarning,0832.5,4.99,000.00,029.7,027.2,000.0,038.1,030.9,34.3,0000.0,0012.59,0004.72,0003.92
2023-07-05 00:23:00,SystemResetWarning,0832.6,5.00,000.00,029.8,027.5,000.0,038.1,030.9,34.4,0000.0,0012.66,0004.75,0003.95
2023-07-05 00:24:00,SystemResetWarning,0832.7,5.00,000.00,029.8,027.7,000.0,038.2,031.0,34.7,0000.0,0013.05,0004.80,0003.98
2023-07-05 00:25:00,SystemResetWarning,0832.6,4.99,000.00,029.8,027.9,000.0,038.2,031.1,34.9,0000.0,0013.28,0004.88,0004.01
2023-07-05 00:26:00,SystemResetWarning,0832.6,5.01,000.00,029.8,027.7,000.0,038.2,031.1,34.9,0000.0,0013.68,0004.96,0004.03
2023-07-05 00:27:00,SystemResetWarning,0832.6,5.00,000.00,029.9,026.1,000.0,038.0,031.0,34.9,0000.0,0013.84,0004.99,0004.03
2023-07-05 00:28:00,SystemResetWarning,0832.6,5.00,000.00,029.9,025.3,000.0,037.9,030.8,35.1,0000.0,0013.69,0004.96,0004.04
2023-07-05 00:29:00,SystemResetWarning,0832.6,5.02,000.00,030.0,025.3,000.0,037.9,030.7,35.0,0000.0,0013.35,0004.94,0004.05
2023-07-05 00:30:00,SystemResetWarning,0832.7,4.97,000.00,030.2,025.7,000.0,038.0,030.7,34.5,0000.0,0013.36,0004.99,0004.06
2023-07-05 00:31:00,SystemResetWarning,0832.7,5.03,000.00,030.2,026.1,000.0,038.0,030.8,34.3,0000.0,0012.80,0005.02,0004.07
2023-07-05 00:32:00,SystemResetWarning,0832.8,4.98,000.00,030.3,026.5,000.0,038.1,030.9,34.1,0000.0,0012.53,0005.01,0004.08
2023-07-05 00:33:00,SystemResetWarning,0833.1,5.00,000.00,030.4,026.9,000.0,038.2,030.9,34.0,0000.0,0012.04,0005.02,0004.07
2023-07-05 00:34:00,SystemResetWarning,0832.9,5.01,000.00,030.4,027.2,000.0,038.2,031.0,33.8,0000.0,0012.09,0004.99,0004.04
2023-07-05 00:35:00,SystemResetWarning,0833.0,5.01,000.00,030.4,027.4,000.0,038.3,031.1,33.8,0000.0,0011.98,0004.96,0004.01
2023-07-05 00:36:00,SystemResetWarning,0833.1,4.99,000.00,030.4,027.7,000.0,038.4,031.1,33.9,0000.0,0011.66,0004.89,0003.96
2023-07-05 00:37:00,SystemResetWarning,0833.1,4.99,000.00,030.5,027.9,000.0,038.4,031.2,33.9,0000.0,0011.11,0004.81,0003.91
2023-07-05 00:38:00,SystemResetWarning,0833.1,5.00,000.00,030.5,028.0,000.0,038.5,031.2,33.9,0000.0,0010.88,0004.77,0003.87
2023-07-05 00:39:00,SystemResetWarning,0833.2,5.01,000.00,030.5,028.1,000.0,038.5,031.3,34.0,0000.0,0010.74,0004.67,0003.83
2023-07-05 00:40:00,SystemResetWarning,0833.2,4.99,000.00,030.5,026.8,000.0,038.4,031.2,33.9,0000.0,0010.35,0004.57,0003.78
2023-07-05 00:41:00,SystemResetWarning,0833.2,5.00,000.00,030.5,025.5,000.0,038.3,031.0,33.8,0000.0,0010.22,0004.49,0003.73
2023-07-05 00:42:00,SystemResetWarning,0833.2,5.01,000.00,030.4,025.3,000.0,038.3,030.8,34.0,0000.0,0010.10,0004.42,0003.69
2023-07-05 00:43:00,SystemResetWarning,0833.2,5.01,000.00,030.2,025.6,000.0,038.3,030.7,34.5,0000.0,0009.93,0004.36,0003.66
2023-07-05 00:44:00,SystemResetWarning,0833.3,4.99,000.00,030.2,026.0,000.0,038.4,030.7,34.7,0000.0,0009.91,0004.33,0003.65
2023-07-05 00:45:00,SystemResetWarning,0833.3,5.00,000.00,030.1,026.4,000.0,038.4,030.8,34.9,0000.0,0009.31,0004.31,0003.65
2023-07-05 00:46:00,SystemResetWarning,0833.2,4.99,000.00,030.1,026.8,000.0,038.4,030.9,34.9,0000.0,0008.45,0004.29,0003.64
2023-07-05 00:47:00,SystemResetWarning,0833.3,5.01,000.00,030.2,027.1,000.0,038.4,031.0,35.0,0000.0,0008.13,0004.27,0003.65
2023-07-05 00:48:00,SystemResetWarning,0833.3,4.99,000.00,030.3,027.4,000.0,038.4,031.1,34.7,0000.0,0008.39,0004.25,0003.67
2023-07-05 00:49:00,SystemResetWarning,0833.4,5.00,000.00,030.5,027.6,000.0,038.4,031.2,34.7,0000.0,0008.12,0004.24,0003.69
2023-07-05 00:50:00,SystemResetWarning,0833.4,5.01,000.00,030.5,027.8,000.0,038.5,031.3,34.6,0000.0,0008.05,0004.25,0003.71
2023-07-05 00:51:00,SystemResetWarning,0833.6,4.99,000.00,030.6,028.0,000.0,038.5,031.3,34.5,0000.0,0008.19,0004.27,0003.73
2023-07-05 00:52:00,SystemResetWarning,0833.7,4.98,000.00,030.6,028.1,000.0,038.6,031.3,34.0,0000.0,0008.18,0004.29,0003.76
2023-07-05 00:53:00,SystemResetWarning,0833.7,5.00,000.00,030.6,028.1,000.0,038.6,031.4,33.7,0000.0,0008.27,0004.33,0003.79
2023-07-05 00:54:00,SystemResetWarning,0833.7,5.00,000.00,030.7,026.6,000.0,038.5,031.2,33.3,0000.0,0008.77,0004.37,0003.81
2023-07-05 00:55:00,SystemResetWarning,0833.7,5.01,000.00,030.6,025.4,000.0,038.4,031.0,33.0,0000.0,0008.93,0004.40,0003.83
2023-07-05 00:56:00,SystemResetWarning,0833.8,5.01,000.00,030.5,025.3,000.0,038.4,030.8,33.3,0000.0,0008.86,0004.39,0003.82
2023-07-05 00:57:00,SystemResetWarning,0833.8,5.00,000.00,030.3,025.6,000.0,038.5,030.7,33.8,0000.0,0008.82,0004.41,0003.84
2023-07-05 00:58:00,SystemResetWarning,0833.9,5.00,000.00,030.3,026.0,000.0,038.5,030.8,33.1,0000.0,0008.84,0004.41,0003.84
2023-07-05 00:59:00,SystemResetWarning,0833.9,4.99,000.00,030.2,026.4,000.0,038.5,030.9,32.4,0000.0,0008.78,0004.44,0003.84
